2019-093J (44887 NORAD) Tracking and Keplerian Element Data

This shows tracking and keplerian element data for the satellite.

Feedback or suggestion? Click here.




ElementValue
Catalog44887
Name2019-093J
Epoch Orbit2934
Epoch Day187.23687762
Epoch Year2020
RAAN263.4638
Inclination97.9583
Eccentricity0.0015116
Argument of Perigee1.4423
Mean Anonmoly358.6842
Mean Motion14.82368655
Decay Rate3.3E-07
L11 44887U 19093J 20187.23687762 .00000033 00000-0 10891-4 0 9991
L22 44887 97.9583 263.4638 0015116 1.4423 358.6842 14.82368655 29346

Live tracking and technical data element details for 2019-093J (NORAD 44887). 2019-093J can be tracked NOW for your location showing map with azimuth and elevation plus other details from your city location.

Track the satellite on the map from your city or location and see movement details for azimuth, elevation, latitude, longitude, range, height, and movement on the map or in text.







IsCatalogInMostPopularTable: catalog: 44887, numindb: 42
Update: records affected: 1



GetName: 44887 2019-093J

Hit Count: updated at: Mon, 06 Jul 2020 04:50:01 GMT